Overview Statistics Trail Chart Weather Telemetry Raw packets
 

This is the latest recevied weather packets stored in our database for station/object N7IGG. If no packets are shown the sender has not sent any weather packets the latest 10 day(s).

<< 72 73 74 75 76 77 78 >>
Time Temp. Humidity Pressure Rain* Wind** Luminosity Snow
1777658515 14.44° C 84% 1016.8 hPa 0 mm - 147 W/m² -
1777658212 13.89° C 85% 1016.9 hPa 0 mm - 239 W/m² -
1777657909 13.89° C 86% 1017 hPa 0 mm - 172 W/m² -
1777657605 13.33° C 86% 1017.1 hPa 0 mm - 126 W/m² -
1777657303 13.33° C 87% 1017.1 hPa 0 mm - 350 W/m² -
1777657000 13.33° C 86% 1017.1 hPa 0 mm - 147 W/m² -
1777656697 13.33° C 87% 1017.2 hPa 0 mm - 170 W/m² -
1777656393 13.33° C 87% 1017.1 hPa 0 mm - 110 W/m² -
1777656088 12.78° C 88% 1017.2 hPa 0 mm - 110 W/m² -
1777655784 12.78° C 88% 1017.3 hPa 0 mm - 400 W/m² -
1777655482 12.78° C 88% 1017.2 hPa 0 mm - 100 W/m² -
1777655189 12.22° C 88% 1017.3 hPa 0 mm - 111 W/m² -
1777654875 12.22° C 88% 1017.2 hPa 0 mm - 87 W/m² -
1777654572 12.78° C 88% 1017.3 hPa 0 mm - 94 W/m² -
1777654270 12.78° C 89% 1017.3 hPa 0 mm - 100 W/m² -
1777653968 12.78° C 89% 1017.5 hPa 0 mm - 109 W/m² -
1777653664 12.78° C 89% 1017.5 hPa 0 mm - 109 W/m² -
1777653361 12.22° C 89% 1017.4 hPa 0 mm - 106 W/m² -
1777653058 12.78° C 89% 1017.5 hPa 0 mm - 105 W/m² -
1777652754 12.78° C 90% 1017.4 hPa 0 mm - 99 W/m² -
1777652451 12.22° C 90% 1017.5 hPa 0 mm - 89 W/m² -
1777652148 12.22° C 90% 1017.8 hPa 0 mm - 83 W/m² -
1777651845 12.22° C 90% 1017.7 hPa 0 mm - 72 W/m² -
1777651542 12.22° C 91% 1017.6 hPa 0 mm - 71 W/m² -
1777651239 11.67° C 91% 1017.7 hPa 0 mm - 72 W/m² -

* Rain latest hour (hover to see other rain measurements)
** Current wind speed in m/s (hover to see current wind gust speed)